Regional Weather Roundup
Issued by NWS

Home | Current Version | Previous Version | Graphics & Text | Print | Product List | Glossary On
Versions: 1 2 3 4 5 6 7 8 9 10 11 12 13 14 15 16 17 18 19 20 21 22 23 24 25 26 27 28 29 30 31 32 33 34 35 36 37 38 39 40 41 42 43 44 45 46 47 48 49 50
000
ASUS43 KTOP 011859
RWRKS

WEATHER ROUNDUP FOR KANSAS
NATIONAL WEATHER SERVICE GOODLAND KS
200 PM CDT SAT AUG 01 2015

NOTE:  "FAIR" INDICATES FEW OR NO CLOUDS BELOW 12,000 FEET WITH NO
SIGNIFICANT WEATHER AND/OR OBSTRUCTIONS TO VISIBILITY.

KSZ001>006-013>018-027>032-041>047-012000-
NORTHWEST KANSAS

CITY           SKY/WX    TMP DP  RH WIND       PRES   REMARKS
GOODLAND       SUNNY     90  50  25 S18       30.10F
HAYS           MOSUNNY   90  64  43 SE8G17    30.05F
HILL CITY      MOSUNNY   91  64  40 SE10G18   30.06F
RUSSELL        SUNNY     91  65  41 VRB6      30.03F
$$

KSZ061>065-074>080-084>089-012000-
SOUTHWEST KANSAS

CITY           SKY/WX    TMP DP  RH WIND       PRES   REMARKS
DODGE CITY     SUNNY     87  62  43 S9        30.07F
ELKHART          N/A     84  68  58 S9          N/A
GARDEN CITY    SUNNY     87  60  40 SE9G21    30.07F
GREAT BEND     SUNNY     90  63  40 SE9G18    30.04F
LIBERAL        MOSUNNY   86  66  51 S12       30.06F
PRATT          MOSUNNY   86  64  48 S8        30.07F
$$

KSZ066>073-081>083-090>101-012000-
SOUTHEAST KANSAS

CITY           SKY/WX    TMP DP  RH WIND       PRES   REMARKS
CHANUTE        SUNNY     91  70  49 S10       30.04F HX  96
COFFEYVILLE    MOSUNNY   91  70  49 W7        30.03F HX  96
HUTCHINSON     SUNNY     90  68  48 S8        30.05F
MEDICINE LODGE   N/A     88  68  51 S8G17     30.03F
NEWTON         MOSUNNY   88  66  48 SW9       30.08F
PARSONS        MOSUNNY   90  73  57 SW10      30.05F HX  98
WICHITA INTL   MOSUNNY   87  71  58 S9        30.04F
WICHITA JABRA  MOSUNNY   88  71  57 S6        30.05F
WINFIELD       MOSUNNY   88  74  63 SW8       30.05F HX  96
$$

KSZ007>012-019>026-033>040-048>060-102>105-012000-
NORTHEAST KANSAS

CITY           SKY/WX    TMP DP  RH WIND       PRES   REMARKS
CONCORDIA      PTSUNNY   87  71  58 NE7       30.04F
EMPORIA        MOSUNNY   90  68  48 NW6       30.04F
LAWRENCE       SUNNY     90  72  55 NW8       30.02F HX  97
MANHATTAN      MOSUNNY   92  68  45 S7        30.02F HX  96
OLATHE IND     MOSUNNY   89  71  55 VRB5      30.03F HX  95
OLATHE EXE     MOSUNNY   89  71  55 W9        30.02F HX  95
SALINA         MOSUNNY   93  66  40 SE10      30.02F HX  96
TOPEKA BILLARD SUNNY     88  68  51 NW8       30.02F
TOPEKA FORBES  SUNNY     91  68  46 CALM      30.03F HX  95
$$



USA.gov is the U.S. government's official web portal to all federal, state and local government web resources and services.